Tracking 18850 objects as of 22-Nov-2017
HD Live streaming from Space Station
objects crossing your sky now

FENGYUN 1C DEB

Track FENGYUN 1C DEB now!
10-day predictions


NORAD ID: 30291
Int'l Code: 1999-025ZC
Perigee: 706.9 km
Apogee: 974.6 km
Inclination: 97.2 °
Period: 101.6 minutes
Semi major axis: 7211 km
RCS: 0.0203 m2 (small)
Launch date: May 10, 1999
Source: People's Republic of China (PRC)
Launch site: Taiyaun Space Center, China (TSC)

Note: This is SATELLITE DEBRIS
aabbcc
Your satellite tracking list
Your tracking list is empty




NASA's NSSDC Master Catalog

Two Line Element Set (TLE):
1 30291U 99025ZC  17325.53212553 +.00001064 +00000-0 +45650-3 0  9998
2 30291 097.2348 320.3007 0185553 278.9560 201.7985 14.17558377557736
Source of the keplerian elements: AFSPC